Regional Weather Roundup
Issued by NWS Charleston, SC

Current Version | Previous Version | Graphics & Text | Print | Product List | Glossary On
Versions: 1 2 3 4 5 6 7 8 9 10 11 12 13 14 15 16 17 18 19 20 21 22 23 24 25 26 27 28 29 30 31 32 33 34 35 36 37 38 39 40 41 42 43 44 45 46 47 48 49 50
000
ASUS42 KCHS 191025
RWRCHS

REGIONAL WEATHER ROUNDUP
NATIONAL WEATHER SERVICE CHARLESTON SC
600 AM EDT FRI SEP 19 2014

NOTE: "FAIR" INDICATES FEW OR NO CLOUDS BELOW 12,000 FEET WITH NO
SIGNIFICANT WEATHER AND/OR OBSTRUCTIONS TO VISIBILITY.

NOT ALL STATIONS ARE QUALITY CONTROLLED BY THE NATIONAL
WEATHER SERVICE. USE DATA WITH CAUTION...ESPECIALLY
DEWPOINT OBSERVATIONS.

SCZ027-030-031-034>040-042>050-191100-
...SOUTH CAROLINA...

CITY           SKY/WX    TMP DP  RH WIND       PRES   REMARKS
N CHARLESTON   MOCLDY    72  69  90 NE6       30.01R
WATERFRONT PRK   N/A     75 N/A N/A NE10        N/A
FORT JOHNSON   NOT AVBL
MOUNT PLEASANT FAIR      72  70  94 CALM      30.01R
JOHNS ISLAND   MOSUNNY   73  73 100 CALM      30.01R
PINOPOLIS        N/A     75  70  83 E10       29.95R
MONCKS CORNER    N/A     72  70  94 NE3       30.02R
SUMMERVILLE    FAIR      68  68 100 CALM      30.03R
BEAUFORT MCAS  PTCLDY    72  70  93 W3        29.99S
BEAUFORT ARPT  FAIR      73  73 100 NE3       29.99R
HILTON HEAD IS NOT AVBL
GEORGETOWN     NOT AVBL
WALTERBORO     MOSUNNY   70 N/A N/A CALM      30.02R
ORANGEBURG     MOCLDY    70  67  90 NE3       30.03R
BARNWELL       FAIR      70  70 100 NE3       30.03S
AIKEN          FAIR      66  66 100 CALM      30.06S FOG
MANNING        CLOUDY    70 N/A N/A CALM      30.03S
KINGSTREE      NOT AVBL
COLUMBIA       MOCLDY    70  67  90 E5        30.03R
SUMTER         PTCLDY    66  63  88 E6        30.03S
FLORENCE       MOCLDY    67  63  87 NE8       30.06R
MYRTLE BEACH   MOCLDY    70  63  78 NE8       30.04S
N MYRTLE BEACH PTCLDY    67  63  87 NE8       30.04S

$$

GAZ063-065-086>088-099>101-113>116-118-119-134-136>141-150-191100-
...GEORGIA...

CITY           SKY/WX    TMP DP  RH WIND       PRES   REMARKS
SAVANNAH ARPT  PTCLDY    71  68  90 N3        29.99R
HUNTER AAF     MOCLDY    71  70  98 N1        29.97R
FORT STEWART   MOCLDY    70  69  95 NW2       29.97S
STATESBORO     NOT AVBL
SYLVANIA       MOSUNNY   71  70  98 CALM      30.01S FOG
CLAXTON        FAIR     N/A N/A N/A CALM      30.00S
THOMSON        CLOUDY    67  67 100 CALM      30.07R
AUGUSTA-BUSH   MOCLDY    66  65  96 CALM      30.01R FOG
AUGUSTA-DANIEL MOCLDY    71  68  90 NE3       30.03R
SWAINSBORO     FAIR      72  72 100 NE3       30.01S
VIDALIA        CLOUDY    72  70  94 CALM      30.00R
ALMA           MOCLDY    72  71  97 CALM      29.97S FOG
WAYCROSS       MOCLDY    74  74  99 CALM      29.98R FOG
JESUP          FAIR      73  72  94 NE3       29.98S
BRUNSWICK      MOCLDY    73  72  94 CALM      29.98R
SAINT SIMONS   CLOUDY    76  72  87 N6        29.96S THUNDER

$$

SCZ027-028-034-036>038-045-046-048>050-GAZ119-141-191100-
...LAKE AND SUPPLEMENTAL COASTAL OBSERVATIONS...

STATION/POSITION TIME  TEMP    WIND        PRES    WAVE   SWELL
                       AIR SEA DIR/SP/G            HT/PER HT/PER/DIR
                 (UTC) (F)     (DEG/KT/KT) (MB)    (FT/S) (FT/S/D)
UPR LAKE MARION  NOT AVBL
WINYAH BAY       1000   79      90/ 12     1016.0S
LAKE MURRAY      0900   71      80/  7/  8 1016.3S
ACE BASIN NERRS  1000   71     100/  1     1016.0R
FORT PULASKI     1000   76      10/  4/  6 1015.4R
SAPELO ISLAND    1000   75      50/  5     1015.0S

$$

ANZ835-935-AMZ111-154-330-350-352-354-374-450-454-472-191100-
...C-MAN AND BUOY OBSERVATIONS...

STATION/POSITION TIME  TEMP    WIND        PRES    WAVE   SWELL
                       AIR SEA DIR/SP/G            HT/PER HT/PER/DIR
                 (UTC) (F)     (DEG/KT/KT) (MB)    (FT/S) (FT/S/D)
FOLLY BEACH CMAN 1000   75     260/  5/  7 1016.5R
BUOY 41004       1000   80 83   80/ 12/ 16 1015.0R   4/ 6   3/ 6
BUOY 41008       1000   78 83  290/  4/  4 1014.7R   2/11   2/ 80/11
5E ST. MARYS GA  1000      84                N/A     2/10   2/ 90/13
FRYING PAN BUOY  NOT AVBL
BUOY 41025       1000   74      30/ 17/ 23 1017.7R   5/ 6   2/ 70/ 9
CAPE LOOKOUT NC  1000   74      20/ 10/ 15 1018.1R
BUOY 41002       0855   79 82   60/ 14/ 16 1016.4R   4/ 6   2/ 90/10
BUOY 41010       1000   82 85   70/  6/ 10 1013.8R   3/12   3/ 30/12
BUOY 41012       NOT AVBL
ST AUGUSTINE FL  1000   76     330/  3/  4 1014.7R
CAPERS NEARSHORE 0900   79      90/ 14/ 17   N/A
FRIPP NEARSHORE  NOT AVBL


$$


USA.gov is the U.S. government's official web portal to all federal, state and local government web resources and services.